This is the latest recevied weather packets stored in our database for station/object W7TJC. If no packets are shown the sender has not sent any weather packets the latest 10 day(s).
| Time | Temp. | Humidity | Pressure | Rain* | Wind** | Luminosity | Snow |
|---|---|---|---|---|---|---|---|
| 1777822804 | 17.22° C | 66% | 1015.3 hPa | 0 mm | - | 21 W/m² | - |
| 1777822502 | 17.22° C | 65% | 1015.4 hPa | 0 mm | - | 22 W/m² | - |
| 1777822199 | 16.67° C | 67% | 1015.5 hPa | 0 mm | - | 14 W/m² | - |
| 1777821896 | 16.67° C | 67% | 1015.4 hPa | 0 mm | - | 15 W/m² | - |
| 1777821594 | 16.67° C | 66% | 1015.3 hPa | 0 mm | - | 15 W/m² | - |
| 1777821292 | 16.11° C | 68% | 1015.2 hPa | 0 mm | - | 86 W/m² | - |
| 1777820988 | 16.11° C | 68% | 1015.5 hPa | 0 mm | - | 17 W/m² | - |
| 1777820685 | 16.11° C | 68% | 1015.5 hPa | 0 mm | - | 12 W/m² | - |
| 1777820380 | 16.11° C | 68% | 1015.4 hPa | 0 mm | - | 15 W/m² | - |
| 1777820078 | 16.11° C | 67% | 1015.3 hPa | 0 mm | - | 17 W/m² | - |
| 1777819776 | 15.56° C | 69% | 1015.3 hPa | 0 mm | - | 71 W/m² | - |
| 1777819473 | 15.56° C | 68% | 1015.5 hPa | 0 mm | - | 11 W/m² | - |
| 1777819171 | 15.56° C | 69% | 1015.3 hPa | 0 mm | - | 25 W/m² | - |
| 1777818867 | 15° C | 69% | 1015.1 hPa | 0 mm | - | 12 W/m² | - |
| 1777818563 | 15° C | 70% | 1015.5 hPa | 0 mm | - | 10 W/m² | - |
| 1777818261 | 15° C | 71% | 1015.2 hPa | 0 mm | - | 9 W/m² | - |
| 1777817957 | 14.44° C | 71% | 1015.4 hPa | 0 mm | - | 9 W/m² | - |
| 1777817655 | 14.44° C | 71% | 1015.1 hPa | 0 mm | - | 8 W/m² | - |
| 1777817351 | 14.44° C | 72% | 1015.2 hPa | 0 mm | - | 8 W/m² | - |
| 1777817049 | 13.89° C | 72% | 1015.2 hPa | 0 mm | - | 7 W/m² | - |
| 1777816744 | 13.89° C | 73% | 1015.1 hPa | 0 mm | - | 7 W/m² | - |
| 1777816442 | 13.89° C | 75% | 1015.3 hPa | 0 mm | - | 6 W/m² | - |
| 1777816139 | 13.89° C | 74% | 1015.2 hPa | 0 mm | - | 5 W/m² | - |
| 1777815837 | 13.33° C | 74% | 1014.8 hPa | 0 mm | - | 5 W/m² | - |
| 1777815534 | 13.33° C | 76% | 1015.3 hPa | 0 mm | - | 4 W/m² | - |
* Rain latest hour (hover to see other rain measurements)
** Current wind speed in m/s (hover to see current wind gust speed)